EHI
0 0 0 0 0 0 0 0 0 0 0 0 0 0 0 0 0 0 0 0 0 0 0 0 0 0 0 0 0 0 0 0 0 0 0 0 0 0 0 0 0 0 0 0 0 0 0 0 0
0 0 0 0 0 0 0 0 0 0 0 0 0 0 0 0 0 0 0 0 0 0 0 0 0 0 0 0 0 0 0 0 0 0 0 0 0 0 0 0 0 0 0 0 0 0 0 0 0
0 0 0 0 0 0 0 0 0 0 0 0 0 0 0 0 0 0 0 0 0 0 0 0 0 0 0 0 0 0 0 0 0 0 0 0 0 0 0 0 0 0 0 0 0 0 0 0 0
0 0 0 0 0 0 0 0 0 0 0 0 0 0 0 0 0 0 0 0 0 0 0 0 0 0 0 0 0 0 0 0 0 0 0 0 0 0 0 0 0 0 0 0 0 0 0 0 0
0 0 0 0 0 0 0 0 0 0 0 0 0 0 0 0 0 0 0 0 0 0 0 0 0 0 0 0 0 0 0 0 0 0 0 0 0 0 0 0 0 0 0 0 0 0 0 0 0
0 0 0 0 0 0 0 0 0 0 0 0 0 0 0 0 0 0 0 0 0 0 0 0 0 0 0 0 0 0 0 0 0 0 0 0 0 0 0 0 0 0 0 0 0 0 0 0 0
0 0 0 0 0 0 0 0 0 0 0 0 0 0 0 0 0 0 0 0 0 0 0 0 0 0 0 0 0 0 0 0 0 0 0 0 0 0 0 0 0 0 0 0 0 0 0 0 0
0 0 0 0 0 0 0 0 0 0 0 0 0 0 0 0 0 0 0 0 0 0 0 0 0 0 0 0 0 0 0 0 0 0 0 0 0 0 0 0 0 0 0 0 0 0 0 0 0
0 0 0 0 0 0 0 0 0 0 0 0 0 0 0 0 0 0 0 0 0 0 0 0 0 0 0 0 0 0 0 0 0 0 0 0 0 0 0 0 0 0 0 0 0 0 0 0 0
0 0 0 0 0 0 0 0 0 0 0 0 0 0 0 0 0 0 0 0 0 0 0 0 0 0 0 0 0 0 0 0 0 0 0 0 0 0 0 0 0 0 0 0 0 0 0 0 0
0 0 0 0 0 0 0 0 0 0 0 0 0 0 0 0 0 0 0 0 0 0 0 0 0 0 0 0 0 0 0 0 0 0 0 0 0 0 0 0 0 0 0 0 0 0 0 0 0
0 0 0 0 0 0 0 0 0 0 0 0 0 0 0 0 0 0 0 0 0 0 0 0 0 0 0 0 0 0 0 0 0 0 0 0 0 0 0 0 0 0 0 0 0 0 0 0 0
0 0 0 0 0 0 0 0 0 0 0 0 0 0 0 0 0 0 0 0 0 0 0 0 0 0 0 0 0 0 0 0 0 0 0 0 0 0 0 0 0 0 0 0 0 0 0 0 0
0 0 0 0 0 0 0 0 0 0 0 0 0 0 0 0 0 0 0 0 0 0 0 0 0 0 0 0 0 0 0 0 0 0 0 0 0 0 0 0 0 0 0 0 0 0 0 0 0
0 0 0 0 0 0 0 0 0 0 0 0 0 0 0 0 0 0 0 0 0 0 0 0 0 0 0 0 0 0 0 0 0 0 0 0 0 0 0 0 0 0 0 0 0 0 0 0 0
0 0 0 0 0 0 0 0 0 0 0 0 0 0 0 0 0 0 0 0 0 0 0 0 0 0 0 0 0 0 0 0 0 0 0 0 0 0 0 0 0 0 0 0 0 0 0 0 0
0 0 0 0 0 0 0 0 0 0 0 0 0 0 0 0 0 0 0 0 0 0 0 0 0 0 0 0 0 0 0 0 0 0 0 0 0 0 0 0 0 0 0 0 0 0 0 0 0
0 0 0 0 0 0 0 0 0 0 0 0 0 0 0 0 0 0 0 0 0 0 0 0 0 0 0 0 0 0 0 0 0 0 0 0 0 0 0 0 0 0 0 0 0 0 0 0 0
0 0 0 0 0 0 0 0 0 0 0 0 0 0 0 0 0 0 0 0 0 0 0 0 0 0 0 0 0 0 0 0 0 0 0 0 0 0 0 0 0 0 0 0 0 0 0 0 0
0 0 0 0 0 0 0 0 0 0 0 0 0 0 0 0 0 0 0 0 0 0 0 0 0 0 0 0 0 0 0 0 0 0 0 0 0 0 0 0 0 0 0 0 0 0 0 0 0
0 0 0 0 0 0 0 0 0 0 0 0 0 0 0 0 0 0 0 0 0 0 0 0 0 0 0 0 0 0 0 0 0 0 0 0 0 0 0 0 0 0 0 0 0 0 0 0 0
0 0 0 0 0 0 0 0 0 0 0 0 0 0 0 0 0 0 0 0 0 0 0 0 0 0 0 0 0 0 0 0 0 0 0 0 0 0 0 0 0 0 0 0 0 0 0 0 0
0 0 0 0 0 0 0 0 0 0 0 0 0 0 0 0 0 0 0 0 0 0 0 0 0 0 0 0 0 0 0 0 0 0 0 0 0 0 0 0 0 0 0 0 0 0 0 0 0
0 0 0 0 0 0 0 0 0 0 0 0 0 0 0 0 0 0 0 0 0 0 0 0 0 0 0 0 0 0 0 0 0 0 0 0 0 0 0 0 0 0 0 0 0 0 0 0 0
0 0 0 0 0 0 0 0 0 0 0 0 0 0 0 0 0 0 0 0 0 0 0 0 0 0 0 0 0 0 0 0 0 0 0 0 0 0 0 0 0 0 0 0 0 0 0 0 0
0 0 0 0 0 0 0 0 0 0 0 0 0 0 0 0 0 0 0 0 0 0 0 0 0 0 0 0 0 0 0 0 0 0 0 0 0 0 0 0 0 0 0 0 0 0 0 0 0
0 0 0 0 0 0 0 0 0 0 0 0 0 0 0 0 0 0 0 0 0 0 0 0 0 0 0 0 0 0 0 0 0 0 0 0 0 0 0 0 0 0 0 0 0 0 0 0 0
0 0 0 0 0 0 0 0 0 0 0 0 0 0 0 0 0 0 0 0 0 0 0 0 0 0 0 0 0 0 0 0 0 0 0 0 0 0 0 0 0 0 0 0 0 0 0 0 0
0 0 0 0 0 0 0 0 0 0 0 0 0 0 0 0 0 0 0 0 0 0 0 0 0 0 0 0 0 0 0 0 0 0 0 0 0 0 0 0 0 0 0 0 0 0 0 0 0
0 0 0 0 0 0 0 0 0 0 0 0 0 0 0 0 0 0 0 0 0 0 0 0 0 0 0 0 0 0 0 0 0 0 0 0 0 0 0 0 0 0 0 0 0 0 0 0 0
Wind_Speed
3 2 3 4 6 5 2 4 3 2 2 2 3 6 6 4 4 3 2 12 10 14 14 18 20 19 17 16 15 14 13 13 12 12 11 12 12 12 12 11 11 12 12 12 12 12 12 12 12
1 2 4 5 6 1 4 3 3 4 5 3 2 4 5 1 1 5 5 10 15 16 13 14 20 19 18 17 16 15 14 13 13 12 11 11 11 11 11 11 11 11 11 11 11 11 11 11 11
2 2 4 5 3 4 3 3 5 3 3 3 2 3 4 3 2 6 6 14 15 14 12 15 22 20 19 18 16 15 14 13 13 12 11 11 10 10 10 10 10 10 10 10 10 10 10 10 9
3 4 5 4 2 5 5 5 5 3 1 2 3 3 2 1 3 4 8 15 15 13 11 15 22 20 19 18 17 16 14 13 13 12 11 11 10 10 9 9 9 9 8 8 8 8 8 8 8
4 4 4 2 4 4 4 4 4 4 2 0 2 3 1 6 2 6 12 15 15 13 11 14 22 21 19 18 17 16 15 14 13 12 11 11 10 9 9 8 8 7 7 7 7 7 7 7 7
4 5 4 1 4 3 3 2 2 3 2 2 2 3 1 3 3 7 9 11 12 14 12 13 21 21 20 19 18 17 15 14 13 12 11 11 10 9 8 8 7 6 6 5 5 5 5 5 5
4 4 2 2 3 2 2 1 3 3 3 0 3 4 1 2 3 6 8 8 10 11 11 10 12 15 18 19 18 17 16 15 14 13 12 11 10 9 8 7 6 6 5 4 3 3 3 2 3
5 4 1 2 1 1 4 3 2 2 1 1 4 7 5 6 4 5 7 7 9 9 10 9 9 9 10 11 16 16 15 15 14 13 12 11 11 9 9 7 6 6 5 3 2 1 1 0 1
4 5 1 2 0 2 3 3 5 2 2 3 3 2 4 6 6 7 5 5 7 9 9 9 9 9 8 8 12 13 14 13 13 11 12 10 5 4 5 7 8 7 6 4 3 3 3 3 3
4 3 4 3 2 3 1 0 2 3 3 1 2 2 3 6 7 7 7 9 10 12 11 9 10 9 8 8 7 6 6 7 6 5 6 5 4 4 5 9 10 9 7 6 5 5 5 3 1
4 5 5 3 3 3 2 2 1 1 3 4 4 5 5 5 5 7 8 9 11 12 13 11 10 10 9 6 5 4 3 4 5 6 6 5 4 3 3 3 4 4 5 3 3 3 2 2 2
2 4 3 3 2 2 3 2 2 4 7 5 6 7 6 6 7 8 8 8 8 10 13 12 11 10 9 7 6 5 4 4 4 5 7 5 3 3 3 3 3 3 2 3 3 2 3 4 4
2 3 3 3 4 4 3 4 3 6 6 4 3 6 6 6 6 6 6 7 7 10 12 13 12 11 9 7 6 6 5 5 5 5 6 6 4 4 4 3 3 4 3 3 4 4 4 5 5
3 3 5 6 6 4 5 4 3 9 5 3 4 5 4 4 4 4 4 5 7 9 11 11 12 11 9 7 6 5 5 5 5 5 6 7 5 5 4 4 4 4 4 4 4 5 5 4 4
1 4 8 6 4 4 3 4 7 8 4 4 4 4 3 2 1 2 4 5 7 9 9 10 11 10 10 9 7 5 5 5 4 4 5 6 5 5 5 4 4 4 4 4 3 4 3 4 4
3 2 5 7 1 2 5 7 8 4 6 6 4 3 2 1 0 1 2 3 6 7 8 9 9 10 9 8 7 5 4 5 4 4 4 6 6 5 4 4 4 4 3 3 3 3 3 4 4
2 2 4 7 2 3 4 8 7 3 6 7 6 5 3 1 1 2 1 3 5 7 8 8 8 9 8 7 6 5 4 4 3 3 3 4 4 4 4 3 3 3 3 3 3 3 3 4 4
4 4 4 5 4 4 5 9 9 5 6 7 6 5 5 4 1 1 3 3 5 6 7 7 8 8 7 6 4 3 3 2 2 2 2 3 3 3 3 3 3 3 2 2 2 3 3 3 4
5 4 7 7 5 5 8 11 11 7 5 7 7 7 6 5 2 3 4 5 6 6 7 7 7 7 7 4 4 4 3 2 1 1 2 2 2 2 3 2 2 2 3 3 3 2 3 3 2
5 6 7 7 3 3 6 11 10 8 9 11 12 10 9 6 4 3 4 4 5 5 6 6 7 6 6 4 3 3 3 2 1 1 1 0 1 1 2 2 2 2 2 3 2 2 2 2 1
7 6 6 6 5 4 4 9 7 5 5 6 8 9 9 10 9 6 5 4 5 5 5 6 6 6 6 6 4 4 4 3 2 1 1 1 1 1 1 2 2 2 2 2 3 3 3 3 2
7 7 6 4 1 5 1 6 8 5 3 6 8 9 9 8 8 7 6 5 5 4 5 6 6 6 6 6 5 5 3 2 2 1 1 2 2 1 1 1 1 1 1 2 3 2 2 3 3
8 5 3 2 2 3 2 4 10 3 6 9 10 10 10 10 10 9 7 6 5 5 5 6 6 6 5 5 6 6 4 2 1 1 0 1 2 2 1 1 0 1 1 2 3 3 3 3 3
5 3 4 4 3 4 6 7 10 6 10 9 10 11 11 10 9 8 6 6 5 4 5 6 7 5 5 5 5 6 5 4 2 1 0 1 1 2 2 1 1 1 2 3 3 3 4 4 4
4 5 2 3 1 8 4 5 12 9 8 11 16 16 12 11 11 11 10 8 7 6 6 6 7 5 5 5 5 5 5 4 3 2 1 0 1 1 2 1 1 2 3 3 3 3 4 4 5
6 9 7 6 5 6 3 8 10 6 6 7 11 13 12 12 11 12 12 10 9 8 7 7 7 6 5 5 5 4 4 3 2 2 2 1 1 2 2 2 2 3 4 4 3 3 4 4 5
7 6 7 4 2 4 7 7 9 2 2 4 9 12 14 14 13 12 11 10 9 9 8 8 8 6 6 5 5 4 4 3 2 2 1 1 1 2 2 3 3 4 4 4 4 4 5 5 5
7 7 5 5 5 5 7 6 6 5 4 5 10 14 14 12 11 11 11 11 9 8 7 7 7 7 5 5 4 4 3 3 2 1 0 1 2 2 3 3 4 4 5 5 4 5 5 5 6
6 5 5 5 5 5 4 8 6 6 7 10 12 13 15 15 14 13 11 10 9 8 7 7 7 6 5 5 4 4 2 2 1 1 1 2 2 3 3 4 5 5 6 5 5 6 6 7 7
7 8 9 6 6 5 4 9 5 4 5 8 9 10 11 12 12 11 10 9 9 9 8 8 7 6 6 5 4 3 2 1 1 1 2 2 3 3 4 5 5 6 6 6 6 7 7 7 8
Wind_Direction
332 15 67 56 55 49 280 259 206 164 124 195 138 112 120 137 156 175 190 147 149 154 167 167 165 162 158 152 145 140 136 130 125 121 116 110 108 101 96 92 86 81 79 77 74 72 71 69 68
20 40 57 60 82 70 278 260 170 159 167 163 96 100 103 121 185 146 141 160 152 156 164 163 166 164 160 155 150 147 144 138 132 129 123 116 111 105 100 96 91 87 83 80 78 76 74 72 69
1 68 80 74 111 184 235 221 180 175 172 133 95 81 131 168 189 185 184 153 149 157 160 166 167 166 162 158 155 152 150 145 139 135 130 125 118 111 104 100 96 92 88 85 83 80 77 76 72
53 49 58 78 228 229 214 214 182 141 88 95 114 78 80 336 226 203 145 146 150 156 159 168 167 167 165 162 160 157 156 152 146 143 139 134 127 119 112 108 103 100 96 91 88 84 79 75 74
62 72 63 21 259 258 236 215 165 128 141 356 118 112 30 331 10 123 140 150 154 157 161 170 169 169 168 165 164 162 160 157 153 151 148 141 136 130 126 120 115 109 103 96 91 87 82 76 70
55 66 80 277 273 270 259 241 119 93 79 26 90 104 275 319 97 135 145 153 157 159 164 169 171 171 170 169 168 166 165 163 160 159 157 151 146 142 140 135 129 124 116 107 98 90 81 71 63
101 94 161 243 275 299 296 307 107 111 88 105 123 114 265 281 184 150 142 145 153 160 164 169 172 172 173 172 172 170 170 169 167 166 165 160 156 156 155 152 148 143 134 124 115 103 88 70 51
125 100 11 293 285 328 320 360 36 105 161 215 112 142 207 217 180 132 124 136 151 161 166 168 169 168 170 172 173 173 174 175 173 172 169 167 167 167 167 165 168 167 165 163 166 171 177 315 325
91 79 270 261 287 291 325 24 338 333 66 33 48 164 211 142 128 118 115 128 154 166 171 169 169 168 167 168 176 175 176 180 177 174 171 167 160 161 168 174 187 192 194 200 214 236 255 268 285
96 140 232 230 209 210 231 227 316 11 1 9 33 30 88 119 141 152 162 167 171 175 178 175 172 170 168 174 174 173 173 177 172 165 165 155 158 173 176 191 198 204 209 220 234 249 265 275 284
158 195 235 256 225 192 204 260 269 164 256 223 197 180 159 159 172 184 189 184 183 177 178 180 177 172 171 171 166 167 167 169 167 167 165 164 164 174 181 189 210 215 216 226 257 277 276 254 244
211 246 246 258 231 203 213 229 260 213 228 217 191 175 172 178 193 202 202 199 182 174 182 181 178 175 174 170 170 169 168 171 174 177 173 168 169 178 182 192 197 196 200 210 228 240 250 252 249
230 260 283 271 264 243 230 231 243 249 240 218 171 156 175 186 204 215 207 195 181 181 181 180 178 177 174 169 172 173 175 179 181 181 183 178 179 188 189 198 198 203 204 211 222 233 245 249 253
239 263 287 280 268 250 226 250 229 258 231 188 163 167 180 188 204 211 210 195 186 183 178 175 177 176 170 170 170 172 175 178 181 183 188 185 185 189 192 199 202 209 210 214 218 225 233 242 246
288 318 313 288 250 235 173 277 241 244 178 170 169 164 158 182 188 210 212 196 184 178 169 170 173 170 167 166 167 167 171 172 178 185 188 188 186 189 190 198 207 215 214 215 221 232 233 243 246
10 356 304 295 234 172 145 257 267 241 164 179 183 170 154 178 238 262 222 174 165 157 156 163 166 163 164 163 161 159 163 167 175 179 185 192 194 193 190 200 216 218 209 211 220 227 235 246 249
359 267 264 295 238 176 187 245 266 225 167 183 189 177 163 139 49 20 70 136 144 147 147 149 151 157 159 153 149 149 153 162 170 173 182 193 198 197 196 208 222 217 213 220 232 235 231 250 257
236 243 259 271 271 195 224 250 266 250 195 192 190 179 170 155 153 87 81 98 115 123 130 134 139 147 144 136 128 124 125 137 141 158 179 184 194 200 200 214 228 220 217 233 238 248 247 248 261
217 243 265 264 256 217 237 255 261 248 211 196 192 185 177 168 148 97 87 94 100 107 117 126 131 140 139 135 136 132 133 130 129 153 170 179 191 197 198 214 224 215 222 233 237 245 260 264 258
228 251 268 285 284 232 258 266 260 237 212 196 187 185 178 163 146 119 101 95 107 120 119 121 127 135 137 134 131 127 125 123 120 111 103 199 210 217 206 214 227 227 234 256 252 237 258 266 229
230 227 243 261 304 308 298 295 277 260 215 191 186 180 175 168 161 152 134 122 120 127 135 131 128 126 125 123 112 93 78 65 56 35 335 311 288 258 237 230 228 235 224 247 255 242 238 262 263
236 229 223 242 270 287 287 290 283 257 224 196 188 182 180 170 159 156 150 144 143 145 134 127 124 121 122 123 125 129 135 152 190 201 257 308 319 298 274 251 237 242 239 253 260 245 232 235 262
217 214 203 212 201 283 249 239 279 247 227 218 199 190 184 174 165 162 159 153 146 140 133 128 121 118 121 121 129 128 131 150 148 107 10 337 341 340 332 301 262 266 261 264 269 271 253 230 238
167 91 46 44 77 272 227 196 271 228 217 205 196 193 184 174 164 155 150 141 136 134 130 130 126 123 125 124 127 136 144 148 135 122 98 342 337 339 340 335 312 283 274 272 270 265 262 251 248
125 108 15 324 320 250 218 200 250 246 226 197 191 188 183 173 164 160 159 160 157 154 150 144 138 136 137 131 132 140 146 148 153 160 169 190 315 315 311 318 295 283 274 274 272 270 268 260 256
178 158 175 210 229 272 243 224 252 267 258 205 181 173 171 174 173 170 171 168 167 166 161 156 151 148 147 141 138 137 138 139 150 161 170 195 227 252 273 294 292 289 290 290 284 277 271 266 261
156 197 183 158 247 270 272 276 299 299 16 140 153 163 178 182 180 176 173 172 171 170 170 166 158 152 153 148 140 139 141 141 153 164 168 210 251 270 291 298 298 297 295 292 289 276 276 275 266
160 163 135 159 198 242 274 266 254 261 229 179 176 182 186 183 182 180 178 177 175 172 166 162 158 157 156 151 150 150 155 156 157 154 224 272 284 291 303 303 300 297 295 292 288 282 277 276 272
160 171 174 174 182 182 251 268 235 236 212 198 199 193 187 186 187 184 182 178 170 163 161 160 160 152 153 155 152 146 153 150 143 177 249 267 276 290 294 294 296 295 294 291 287 281 281 277 277
180 184 163 174 222 196 199 267 278 265 220 202 202 197 193 191 187 182 175 170 168 167 166 164 162 159 162 158 151 152 154 150 173 250 268 273 281 286 286 289 291 289 288 286 283 283 283 278 279